GEFSGL_con_cape1000_306.txt.gz
Probability
74 71 71 71 71 71 71 68 61 65 55 55 55 48 45 48 48 48 48 45 45 42 45 39 45 42 39 32 35 35 35 32 26 23 26 23 23 16 19 19 23 13 6
74 71 71 71 71 71 68 68 65 61 65 58 55 48 42 45 45 45 42 45 39 39 39 39 39 32 42 39 35 35 39 29 29 26 26 26 29 23 16 23 16 16 16
68 71 71 71 71 71 68 68 65 65 58 55 55 42 42 48 45 42 39 42 35 35 35 35 39 39 32 35 35 35 35 26 29 23 26 26 23 19 16 13 16 16 16
71 68 68 68 68 68 71 68 65 65 58 65 58 48 45 45 42 45 42 35 35 35 35 35 35 32 35 32 35 35 32 32 26 26 23 26 26 19 10 10 16 16 16
68 71 71 71 74 68 68 68 68 71 58 65 58 55 52 45 39 45 39 32 39 35 32 32 29 29 26 26 23 32 26 32 26 26 26 23 23 16 13 16 16 16 16
68 65 65 65 68 65 65 68 68 71 71 65 58 55 52 35 23 19 29 42 39 39 32 29 29 23 23 10 10 6 6 29 29 26 26 23 29 13 13 10 13 13 13
68 68 68 65 61 65 61 68 68 68 68 65 61 55 52 45 23 10 13 29 42 39 35 29 23 23 19 19 3 3 0 0 0 26 29 26 23 23 16 13 13 13 13
68 68 65 68 65 61 61 65 65 65 65 61 58 48 52 45 26 6 3 13 39 42 39 35 39 35 19 26 26 16 16 16 3 3 3 16 16 19 16 13 13 13 13
68 65 68 71 65 68 68 68 68 68 65 61 61 55 45 48 16 3 0 23 35 45 39 39 35 35 23 10 19 29 26 16 10 0 0 10 10 0 6 13 13 10 13
65 65 74 74 71 71 71 68 68 68 68 61 65 55 45 45 19 3 0 16 35 39 42 32 19 16 13 3 16 23 26 29 13 6 6 3 3 3 0 0 6 13 13
61 65 68 68 71 71 71 71 71 68 65 61 55 48 48 45 26 3 0 16 29 39 32 29 26 3 3 0 0 13 13 16 16 13 13 6 3 6 13 10 13 13 16
61 65 61 61 55 42 65 61 65 65 65 61 61 58 52 42 26 6 0 0 6 23 29 23 19 6 0 0 0 0 0 0 10 13 6 6 10 6 6 10 13 13 13
58 55 55 55 55 52 55 55 61 65 52 52 52 48 45 35 26 16 3 0 0 10 23 10 6 0 0 0 0 0 0 0 6 6 6 6 6 6 10 6 10 13 16
55 48 45 55 52 55 58 58 52 52 52 45 39 32 29 29 29 13 6 3 0 0 3 10 6 0 0 3 0 0 0 6 6 6 6 6 6 6 6 6 10 10 10
45 42 48 48 48 61 52 48 48 45 35 35 32 35 29 23 13 13 10 6 6 6 10 10 13 13 6 6 6 6 6 6 6 6 6 10 6 3 3 3 3 10 10
45 45 39 42 42 45 45 29 13 16 6 6 10 16 16 10 0 0 0 0 0 0 6 10 10 13 13 10 10 10 10 10 6 6 6 6 3 3 3 6 3 3 3
52 42 39 35 39 42 39 35 29 6 0 0 0 3 3 0 0 0 0 0 0 0 3 3 6 10 13 13 10 10 3 6 6 6 3 3 3 0 0 0 3 3 3
42 32 32 39 32 32 32 39 39 32 26 13 0 0 0 0 0 0 0 0 3 0 3 3 3 3 10 10 13 10 6 3 3 6 3 3 3 3 0 0 0 3 3
35 32 29 32 32 32 26 29 35 32 32 32 13 0 0 0 0 0 0 3 3 3 3 3 6 10 10 6 6 6 6 6 6 6 3 3 3 3 3 0 0 3 3
32 26 26 32 29 29 26 26 29 32 32 26 19 6 0 0 3 0 0 0 0 0 3 6 6 3 3 3 3 10 10 6 6 6 3 3 3 3 3 3 3 3 3
26 26 16 23 19 23 26 26 23 23 26 19 19 0 0 0 0 3 0 0 0 0 0 0 0 0 0 3 6 6 6 3 6 6 3 0 0 3 3 3 3 3 3
26 26 26 26 26 26 29 29 16 13 16 16 19 0 0 0 0 0 0 0 0 6 6 0 0 0 0 0 3 3 3 6 3 0 0 0 0 0 0 0 0 0 3
19 16 26 26 26 23 16 23 16 16 13 16 13 10 0 0 0 0 0 0 0 3 3 3 3 0 0 0 0 3 6 3 3 3 3 3 0 0 0 0 0 0 0
16 16 19 19 23 19 23 23 13 16 13 16 6 6 6 0 0 0 0 0 0 0 0 0 0 0 0 0 3 0 0 3 3 3 3 0 0 0 0 0 0 0 0
16 16 13 16 16 23 23 19 16 16 23 16 6 10 6 6 6 0 0 0 0 0 0 0 0 0 0 0 3 3 0 0 0 0 3 0 0 0 0 0 0 0 0
13 10 13 13 16 19 16 16 13 16 16 13 13 10 10 6 6 6 3 6 3 3 3 0 0 0 0 3 0 0 0 0 0 0 0 0 0 0 0 0 0 0 0

GEFSGL_con_cape1000_312.txt.gz
Probability
39 39 35 39 45 39 29 26 26 23 13 13 19 23 23 19 19 16 16 16 13 13 13 10 10 6 6 3 3 6 3 3 3 3 0 0 3 0 0 0 0 0 0
39 39 35 39 39 42 32 26 26 23 16 13 13 16 23 19 19 16 16 16 16 13 10 10 10 10 10 6 6 3 3 0 0 3 3 0 0 0 0 0 3 6 0
45 42 32 39 35 42 29 29 16 23 23 23 16 16 19 19 19 19 16 13 13 16 13 10 10 10 10 6 6 6 3 3 3 3 3 3 0 0 0 3 3 3 6
39 32 39 39 45 42 32 32 23 23 26 26 23 23 16 19 19 19 19 16 16 16 16 13 10 10 10 6 6 6 6 3 3 3 3 3 3 3 0 6 3 3 3
32 26 29 35 35 42 42 32 35 32 29 29 26 23 16 19 16 19 19 16 16 16 16 16 16 6 10 6 10 6 6 6 3 3 3 0 0 3 3 3 3 3 3
29 29 32 29 35 32 35 39 39 35 29 29 29 29 19 19 19 16 13 13 16 19 23 19 16 6 6 6 6 6 3 3 6 3 3 3 0 0 0 0 3 3 3
29 32 29 35 42 39 48 32 29 32 29 29 26 26 23 16 13 10 6 10 13 16 13 16 19 16 3 3 3 0 0 0 3 3 3 0 0 0 0 0 3 3 3
23 29 29 35 42 39 42 39 32 29 35 32 26 23 19 19 10 6 6 3 6 6 10 16 10 10 10 3 3 3 3 3 0 0 3 3 0 0 0 0 3 6 6
26 29 29 32 35 39 39 42 35 32 35 35 32 23 19 19 6 3 0 3 3 6 10 13 10 10 6 3 3 3 6 6 3 0 0 0 0 0 0 0 3 3 6
29 29 29 29 35 32 32 32 35 35 32 32 26 23 23 19 10 6 0 3 6 6 6 10 6 6 10 3 3 6 6 6 3 6 0 0 0 0 0 0 0 0 0
29 26 26 29 32 35 32 32 32 29 23 19 23 19 16 13 10 6 0 3 3 3 6 6 10 3 0 0 0 3 3 3 3 3 3 3 3 3 0 0 0 0 0
29 29 26 26 26 29 32 26 26 23 23 23 23 19 16 13 10 3 0 0 0 3 3 3 6 3 0 0 0 0 0 0 3 3 3 3 3 3 3 3 0 0 0
32 32 26 26 26 23 23 26 26 23 19 19 23 19 16 10 6 3 0 0 0 0 3 0 0 0 0 0 0 0 0 0 0 3 3 3 3 3 3 3 3 3 3
32 26 26 19 19 19 23 19 19 23 19 19 19 23 16 19 6 6 0 0 0 0 0 0 0 0 0 0 0 0 0 0 0 3 3 3 3 3 3 3 3 3 3
32 23 23 19 19 19 19 19 16 19 23 19 19 19 23 19 10 3 3 0 0 0 0 0 0 0 0 0 0 0 0 0 0 0 0 3 6 6 3 3 0 0 0
23 23 26 26 23 19 19 19 13 13 6 3 6 10 10 6 3 0 0 3 0 0 0 0 0 3 3 3 3 0 0 0 0 0 0 0 0 0 0 0 0 0 0
13 16 23 19 23 19 19 16 16 3 0 0 0 0 3 6 0 0 0 0 0 0 0 0 0 0 0 0 3 3 3 0 0 3 3 0 0 0 0 0 0 0 0
13 13 16 16 16 16 13 13 13 10 3 3 0 0 0 0 0 0 0 0 0 0 0 3 3 3 3 3 0 0 0 0 0 0 0 0 0 0 0 0 0 0 0
19 16 16 19 16 16 13 13 13 13 6 0 0 0 0 0 0 0 0 0 0 0 3 3 3 3 0 0 0 0 0 0 0 0 0 0 0 3 0 3 3 0 0
13 16 13 16 16 16 16 16 16 13 10 6 3 0 0 0 0 0 0 0 0 0 3 0 0 0 0 0 0 0 0 0 0 0 0 0 0 0 0 0 3 3 0
16 16 13 13 16 16 16 16 16 13 10 3 3 0 0 0 0 0 0 0 0 0 0 0 0 0 0 0 0 0 0 0 0 0 0 0 0 0 0 0 0 0 0
10 13 10 13 13 13 16 10 10 6 6 6 0 0 0 0 0 0 0 0 0 0 0 0 0 0 0 0 0 0 0 0 0 0 0 0 0 0 0 0 0 0 0
6 6 6 6 6 6 10 10 10 6 6 6 0 0 0 0 0 0 0 0 0 0 0 0 0 0 0 0 0 0 0 0 0 0 0 0 0 0 0 0 0 0 0
6 6 6 6 6 6 10 10 10 6 6 3 0 0 0 0 0 0 0 0 0 0 0 0 0 0 0 0 0 0 0 0 0 0 0 0 0 0 0 0 0 0 0
6 6 6 6 6 6 10 10 10 6 3 3 0 0 0 0 0 0 0 0 0 0 0 0 0 0 0 0 0 0 0 0 0 0 0 0 0 0 0 0 0 0 0
3 6 6 6 6 6 10 10 3 3 3 3 0 0 0 0 0 0 0 0 0 0 0 0 0 0 0 0 0 0 0 0 0 0 0 0 0 0 0 0 0 0 0

GEFSGL_con_cape1000_318.txt.gz
Probability
10 13 19 19 19 16 13 16 19 16 6 3 3 6 16 23 19 16 13 10 13 10 10 10 10 10 10 10 6 6 6 3 6 6 6 3 0 6 6 6 3 6 6
13 13 19 19 19 6 10 13 16 13 10 10 10 10 10 16 23 19 19 19 16 13 10 10 10 10 10 10 10 6 6 6 6 6 6 3 3 3 3 6 3 3 3
13 13 16 26 23 16 16 16 16 13 13 10 10 10 10 13 16 16 16 19 13 10 6 6 10 10 10 10 10 6 6 6 6 6 6 6 6 0 3 3 3 10 3
13 16 23 19 23 19 16 13 13 10 6 6 10 10 16 13 16 16 16 16 13 13 13 13 13 10 10 10 10 6 6 6 3 6 6 6 6 3 0 0 3 6 6
13 10 13 10 10 13 10 13 13 10 16 16 16 16 16 16 13 13 10 13 13 13 10 10 10 10 6 3 3 6 3 3 3 3 3 3 3 3 0 0 3 6 6
13 13 23 16 16 16 10 13 6 10 16 19 23 19 16 16 16 6 6 13 13 6 6 10 6 3 3 3 3 3 3 6 6 3 3 3 3 3 3 0 0 0 3
16 13 19 26 19 16 19 13 13 10 16 16 19 19 19 16 6 6 3 6 10 10 10 6 6 6 6 10 3 3 3 0 0 6 6 6 6 6 6 6 6 3 3
13 10 16 16 19 13 16 19 19 13 13 13 19 19 16 19 6 3 3 0 0 3 6 6 6 6 6 6 6 6 10 3 3 0 3 6 6 10 6 6 6 6 3
13 13 16 13 10 10 13 16 19 10 13 13 13 10 16 13 6 3 0 0 0 3 3 3 3 3 3 0 0 10 10 6 3 3 3 3 3 0 3 3 3 3 10
13 16 19 13 13 13 10 10 19 19 13 16 19 19 16 13 6 3 0 3 3 3 3 3 3 0 0 0 0 6 6 10 10 6 3 0 0 0 0 0 3 3 10
13 13 10 13 13 13 16 16 16 23 23 19 13 10 10 6 6 3 0 3 3 3 3 3 3 0 0 0 0 3 6 6 6 6 10 10 10 6 6 3 0 0 3
16 13 10 13 19 23 23 23 19 23 19 16 13 13 13 10 3 6 3 0 0 6 10 3 0 0 0 0 0 0 0 0 0 6 6 10 10 10 6 6 6 0 0
10 10 10 10 16 23 23 26 19 16 19 19 16 13 10 10 6 3 3 0 0 0 3 3 0 0 0 0 0 0 0 0 0 0 3 6 6 3 6 3 6 6 3
10 10 6 3 10 16 16 19 19 16 16 19 19 19 13 10 10 6 6 0 0 0 0 0 0 0 0 0 0 0 0 0 0 0 0 3 3 0 0 0 0 3 3
6 6 6 10 16 13 10 13 13 16 16 16 13 16 19 16 6 3 0 0 0 0 0 0 0 0 0 0 0 0 0 0 0 0 0 0 0 0 0 0 3 6 3
6 10 6 10 13 13 13 10 10 10 0 0 0 6 6 3 3 0 0 0 0 0 0 0 0 0 0 0 0 0 0 0 0 0 0 0 0 0 0 3 3 3 3
3 3 10 10 10 13 13 13 10 10 0 0 0 0 0 0 0 0 0 0 0 0 0 0 3 3 0 0 0 0 0 0 0 0 0 0 0 0 3 3 0 0 0
0 0 3 10 10 13 13 13 13 10 10 10 0 0 0 0 0 0 0 0 0 0 0 0 0 3 3 0 0 0 0 0 0 0 0 0 0 0 3 0 0 0 0
0 0 0 6 10 10 13 13 13 13 10 10 6 0 0 0 0 0 0 0 0 0 0 0 0 3 3 0 0 0 0 0 0 0 0 0 0 0 0 0 0 0 0
3 0 0 3 3 10 16 13 13 13 13 10 6 6 0 0 0 0 0 0 0 0 0 0 0 0 3 3 0 0 0 0 0 0 0 0 0 0 0 0 0 0 0
3 0 0 0 3 3 10 10 13 13 13 10 10 6 0 0 0 0 0 0 0 0 0 0 0 0 3 3 0 0 0 0 0 0 0 0 0 0 0 0 0 0 0
0 3 3 0 0 3 6 6 10 10 13 13 10 6 0 0 0 0 0 0 0 0 0 0 0 0 0 0 3 0 0 0 0 0 0 0 0 0 0 0 0 0 0
0 0 0 3 3 3 6 6 10 10 10 13 10 6 0 0 0 0 0 0 0 0 0 0 0 0 0 0 0 0 0 0 0 0 0 0 0 0 0 0 0 0 0
0 0 0 3 6 6 10 10 10 10 10 10 10 6 3 0 0 0 0 0 0 0 0 0 0 0 0 0 0 0 0 0 0 0 0 0 0 0 0 0 0 0 0
0 0 3 3 3 6 10 10 10 10 10 6 6 6 6 3 0 0 0 0 0 0 0 0 0 0 0 0 0 0 0 0 0 0 0 0 0 0 0 0 0 0 0
0 0 0 0 3 3 10 10 10 10 6 6 6 6 6 3 3 0 0 0 0 0 0 3 3 3 0 0 0 0 0 0 0 0 0 0 0 0 0 0 0 0 0

GEFSGL_con_cape1000_324.txt.gz
Probability
61 61 58 58 65 61 58 58 55 58 58 52 39 42 39 42 48 52 45 45 45 45 35 35 42 39 42 39 26 26 26 23 16 16 10 16 29 26 23 23 23 19 19
58 61 61 61 61 55 55 61 58 55 58 52 48 39 39 35 42 45 42 39 35 39 42 39 39 39 35 35 32 29 32 23 26 26 26 23 29 29 26 26 16 19 19
42 52 58 65 58 52 52 55 55 52 48 45 48 45 35 32 32 35 42 39 39 39 39 35 39 29 35 32 29 29 29 19 23 23 19 23 19 16 19 23 16 19 16
45 39 48 55 55 52 52 55 58 48 45 42 35 35 35 29 29 29 29 35 35 35 32 29 29 32 35 35 29 29 26 29 29 23 16 16 19 16 23 23 19 19 16
48 48 58 58 58 55 52 55 52 39 39 42 42 39 35 32 26 29 23 23 35 39 35 32 26 23 19 23 26 26 26 26 19 16 16 13 16 16 19 19 16 16 19
52 58 55 58 58 55 48 48 45 45 45 42 42 39 35 29 16 6 10 26 32 42 35 32 29 19 10 3 3 3 6 26 16 16 16 19 19 19 19 13 16 16 13
58 55 55 55 52 52 48 45 45 48 48 45 45 42 29 26 16 6 3 13 29 32 32 39 29 19 13 16 6 3 3 0 0 16 16 19 23 23 23 13 16 13 16
58 55 52 48 52 52 52 52 55 48 48 48 45 39 35 26 16 6 3 13 26 29 26 26 32 26 19 23 23 23 26 19 10 16 16 19 19 26 26 23 16 16 16
52 55 48 42 42 39 45 48 52 48 48 48 39 35 32 32 13 6 0 19 23 26 29 26 26 23 13 3 13 26 26 23 3 3 6 6 3 6 10 13 16 16 13
42 42 42 39 39 35 35 35 35 45 42 45 39 39 35 32 16 3 0 19 19 23 26 19 10 13 10 0 10 19 19 16 13 10 3 0 3 10 3 10 13 13 13
35 32 29 35 35 32 32 35 42 35 35 35 39 39 35 29 13 6 0 13 16 19 16 13 16 6 0 0 0 10 10 10 13 16 16 23 23 13 10 10 13 13 13
39 29 29 32 32 26 29 32 32 35 29 35 39 39 32 23 19 3 3 0 0 19 19 10 10 3 0 0 0 0 0 0 10 10 16 19 23 19 16 13 19 19 19
35 32 29 29 32 26 29 32 35 32 32 29 26 26 26 29 16 6 0 0 0 3 19 3 0 0 0 0 0 0 0 0 6 10 13 16 16 26 16 26 19 26 19
32 32 32 32 26 29 32 29 29 26 26 26 23 23 19 19 19 13 0 0 0 0 3 3 0 0 0 0 0 0 0 6 6 10 16 16 13 16 16 16 13 16 16
35 32 26 19 19 23 26 29 26 26 19 19 19 19 16 16 13 6 6 6 0 3 3 6 6 13 13 13 6 3 3 6 6 6 6 13 10 10 16 10 13 13 13
32 29 23 19 19 16 16 16 10 10 3 3 10 16 16 10 6 0 0 0 0 0 0 3 3 3 3 6 6 6 6 6 6 6 6 6 6 6 6 6 6 10 10
23 23 23 19 19 16 16 16 19 6 0 0 0 0 0 0 0 0 0 0 0 0 0 3 3 3 3 3 3 3 6 6 10 6 6 6 6 6 6 6 6 6 6
23 19 19 19 29 23 23 23 26 19 13 13 3 0 0 0 0 0 0 0 0 0 0 0 3 3 3 0 3 3 6 3 10 10 6 6 6 6 6 6 6 6 6
23 23 19 19 23 23 23 26 23 19 16 16 16 6 0 0 0 0 0 0 0 0 0 0 0 3 3 3 0 0 3 3 3 6 6 10 6 6 6 6 3 3 3
23 13 13 16 16 13 13 19 16 19 16 13 13 10 3 0 0 0 0 0 3 3 3 0 0 0 3 0 3 3 3 3 3 6 6 6 10 6 3 0 0 3 3
13 10 0 10 6 6 10 10 13 16 16 13 13 13 3 6 6 6 0 3 6 6 3 3 3 3 3 0 0 3 3 3 3 6 6 6 6 6 3 3 3 0 0
13 10 6 10 6 10 10 6 10 13 16 13 13 6 3 6 10 10 6 6 10 6 10 3 3 3 3 0 3 3 3 3 3 3 6 6 6 3 0 0 0 0 0
6 6 6 6 6 3 10 10 13 10 6 10 10 10 6 10 10 10 10 3 10 10 6 6 0 0 3 0 3 3 3 3 3 3 6 6 3 3 3 0 0 0 0
6 6 6 6 6 3 3 3 6 3 3 3 3 6 10 10 10 10 10 10 13 6 6 3 3 0 0 0 0 0 3 3 3 3 3 3 3 3 3 3 0 0 0
3 3 3 0 0 0 0 0 0 6 3 3 6 6 10 10 10 10 10 10 10 10 10 3 3 0 0 0 0 0 0 0 0 0 3 3 3 3 3 0 0 0 0
0 0 0 0 0 0 0 0 3 6 6 6 6 3 3 6 10 13 10 6 6 6 10 6 3 3 0 0 0 0 0 0 0 0 0 0 3 0 0 0 0 0 0